Retour au catalogue

QIANFAN-1

ActifCommunicationsPO
NORAD 60379·PAYLOAD·🇨🇳 China

Lancé Aug 6, 2024 depuis Taiyuan Satellite Launch Center

Loading…

Prochains Passages (prochaines 24 heures)

TLE

FraisSource: Space-Track

Époque: Sep 14, 2026, 13:51 UTC

1 60379U 24140A   26257.57711941  .00000012  00000-0 -23636-6 0  9993
2 60379  88.9664 270.6436 0019079 133.5562 226.7177 13.51025812104596

Suivez QIANFAN-1 en temps réel avec AllMySat

Download on the App Store